Simultaneous Nadir Overpasses (SNOs) Predictions

Prediction of SNOs between AQUA and METOP-A Satellite Orbit:

Table of predicted SNOs for the next 14.0 days since TLE Epoch: 2/6/2021
Index Date (AQUA) Time (AQUA) Lat,Lon (AQUA) SZA (AQUA ) Date (METOP-A) Time (METOP-A) Lat,Lon (METOP-A) SZA (METOP-A ) Distance(km) Time Diff (sec)
1 02/07/2021 07:05:06 -77.03,-120.99 87.21 02/07/2021 07:04:24 -77.04,-120.92 87.20 1.88 42
2 02/07/2021 07:54:33 77.04, 46.61 92.80 02/07/2021 07:55:03 77.08, 46.59 92.83 3.68 30
3 02/10/2021 02:39:21 -77.04, -54.57 88.10 02/10/2021 02:38:45 -77.05, -54.51 88.08 2.12 36
4 02/10/2021 03:28:49 77.10, 112.84 91.97 02/10/2021 03:29:24 77.09, 112.99 91.94 3.62 35
5 02/12/2021 22:13:37 -77.05, 11.83 89.02 02/12/2021 22:13:07 -77.07, 11.89 88.99 2.53 30
6 02/12/2021 23:03:05 77.11, 179.23 91.05 02/12/2021 23:03:46 77.11, 179.38 91.03 3.71 41
7 02/15/2021 17:47:53 -77.06, 78.21 89.96 02/15/2021 17:47:29 -77.08, 78.29 89.94 2.63 24
8 02/15/2021 18:37:20 77.08,-114.22 90.06 02/15/2021 18:38:08 77.12,-114.23 90.08 4.05 48
9 02/18/2021 13:22:08 -77.09, 144.56 90.92 02/18/2021 13:21:50 -77.09, 144.68 90.91 2.98 18



Historial Predications of SNOs between AQUA and METOP-A
